Weather Roundup
Issued by NWS

Home | Current Version | Previous Version | Graphics & Text | Print | Product List | Glossary Off
Versions: 1 2 3 4 5 6 7 8 9 10 11 12 13 14 15 16 17 18 19 20 21 22 23 24 25 26 27 28 29 30 31 32 33 34 35 36 37 38 39 40 41 42 43 44 45 46 47 48 49 50

312
NZUS93 KARX 260559
HRRWXR

CURRENT HOURLY OBSERVATIONS ACROSS
MUCH OF THE UPPER MISSISSIPPI VALLEY
NATIONAL WEATHER SERVICE LA CROSSE WI
100 AM CDT MON SEP 26 2016


...SOUTHEAST MINNESOTA...


CITY           SKY/WX    TMP DP  RH WIND       PRES   REMARKS
ROCHESTER      CLEAR     52  46  80 W9        30.01F
ROCHESTER/MAYO FAIR      54  45  72 W12       29.99F
WINONA         CLEAR     55  46  71 W8        29.98S
AUSTIN         CLEAR     52  43  71 W9        30.03F
ALBERT LEA     CLEAR     54  43  66 W7        30.04F
DODGE CENTER   CLEAR     50  45  81 W9        30.01S
PRESTON        CLEAR     51  46  82 W9        30.01F
OWATONNA       CLEAR     54  43  66 W9        30.02S
FARIBAULT      CLEAR     54  43  66 W9G17     30.01F
$$

...ELSEWHERE IN MINNESOTA...


CITY           SKY/WX    TMP DP  RH WIND       PRES   REMARKS
MINNEAPOLIS    MOCLDY    56  44  64 W10       29.97F
INTNL FALLS    CLOUDY    51  49  92 W16G24    29.66F
DULUTH         DRIZZLE   50  49  96 W20       29.75F
RED WING       CLEAR     54  46  76 W7        29.96F
REDWOOD FALLS  CLEAR     54  38  54 W17G24    30.04S
MANKATO        CLEAR     53  41  63 W12       30.03
WORTHINGTON    CLEAR     48  39  71 W10       30.13F
FAIRMONT       CLEAR     52  41  66 W10       30.08F
$$

...SOUTHWEST WISCONSIN...


CITY           SKY/WX    TMP DP  RH WIND       PRES   REMARKS
LA CROSSE      CLEAR     59  50  72 W10       29.97F
PRAIRIE DU CHI PTCLDY    57  49  74 W8        30.01F
BOSCOBEL       CLOUDY    60  51  72 SW6       30.00F
LONE ROCK      NOT AVBL
PLATTEVILLE    CLOUDY    58  52  80 W7        30.02S
FORT MC COY    PTCLDY    55  49  81 W6        29.96F
MAUSTON-NEW LI MOCLDY    58  50  74 W12G17    29.94F
VIROQUA        FAIR      55  50  83 W8        29.99F
WIS DELLS      NOT AVBL
$$

...ELSEWHERE IN WISCONSIN...


CITY           SKY/WX    TMP DP  RH WIND       PRES   REMARKS
MILWAUKEE      CLOUDY    64  54  69 W13       29.91S
MADISON        CLOUDY    60  50  69 W13G18    29.95S
GREEN BAY      CLOUDY    60  56  86 W10       29.84F
EAU CLAIRE     NOT AVBL
BLACK RVR FLS  FAIR      55  45  67 W9        29.95S
MEDFORD        MOCLDY    51  49  91 W13G22    29.86F
WAUSAU         CLOUDY    54  50  86 W14       29.84F
WIS RAPIDS     CLOUDY    55  50  83 W12       29.92F
MARSHFIELD     PTCLDY    54  44  69 W14G24    29.89S
RICE LAKE      NOT AVBL
$$

...NORTHEAST IOWA...


CITY           SKY/WX    TMP DP  RH WIND       PRES   REMARKS
WATERLOO       CLEAR     54  48  80 W6        30.06F
DUBUQUE        CLOUDY    57  50  77 W13       30.04S
DECORAH        CLEAR     54  50  87 VRB7G15   30.01F
MASON CITY     CLEAR     51  43  74 W13       30.09S
CHARLES CITY   CLEAR     54  46  76 W10       30.06F
OELWEIN        CLEAR     54  50  87 W9        30.06S
$$

...ELSEWHERE IN IOWA...


CITY           SKY/WX    TMP DP  RH WIND       PRES   REMARKS
DES MOINES     CLEAR     57  45  64 NW10      30.14R
IOWA CITY      CLOUDY    59  51  75 W8        30.09F
FORT DODGE     CLEAR     52  41  66 W5        30.12F
MARSHALLTOWN   CLEAR     53  49  86 W8        30.10S
CEDAR RAPIDS   MOCLDY    57  52  83 W12       30.07S
$$

...NORTHERN ILLINOIS...


CITY           SKY/WX    TMP DP  RH WIND       PRES   REMARKS
CHICAGO-OHARE  LGT RAIN  64  54  69 W15G24    29.96R
CHICAGO-MIDWAY CLOUDY    67  51  56 W14       29.96S
MOLINE         CLOUDY    62  51  67 W13       30.06S
ROCKFORD       CLOUDY    62  52  69 W13       30.01R
PEORIA         LGT RAIN  63  53  70 NW7       30.07R
$$

NOTE: "FAIR" INDICATES FEW OR NO CLOUDS BELOW 12,000 FEET WITH NO
SIGNIFICANT WEATHER AND/OR OBSTRUCTIONS TO VISIBILITY. WIND
SPEEDS ARE IN MILES-PER-HOUR.




USA.gov is the U.S. government's official web portal to all federal, state and local government web resources and services.